Regional Weather Roundup
Issued by NWS

Home | Current Version | Previous Version | Graphics & Text | Print | Product List | Glossary On
Versions: 1 2 3 4 5 6 7 8 9 10 11 12 13 14 15 16 17 18 19 20 21 22 23 24 25 26 27 28 29 30 31 32 33 34 35 36 37 38 39 40 41 42 43 44 45 46 47 48 49 50
000
ASUS43 KDMX 270408
RWRIA

WEATHER ROUNDUP FOR IOWA
NATIONAL WEATHER SERVICE DES MOINES IA
1100 PM CDT TUE JUL 26 2016

NOTE: "FAIR" INDICATES FEW OR NO CLOUDS BELOW 12,000 FEET WITH NO
SIGNIFICANT WEATHER AND/OR OBSTRUCTIONS TO VISIBILITY.

* - THESE STATIONS ARE NOT NWS STATIONS...THUS NOT UNDER NWS
QUALITY CONTROL.  THEY ALSO DO NOT REPORT WEATHER SUCH
AS PRECIPITATION OR FOG.

IAZ001>003-012>014-020>022-031>034-043>046-270500-
   NORTHWEST IOWA

CITY           SKY/WX    TMP DP  RH WIND       PRES   REMARKS
CARROLL *      PTCLDY    70  68  94 S3        30.03F
CHEROKEE *     PTCLDY    70  68  92 S5        30.02S
DENISON *      MOCLDY    70  68  94 SE5       30.01F
LE MARS *      PTCLDY    73  68  83 S6        30.02S
SHELDON *      CLOUDY    72  68  88 S9        30.01R
SIOUX CITY     PTCLDY    73  67  81 S7        30.01S
SPENCER        CLEAR     70  67  90 S7        30.03R
STORM LAKE *   CLEAR     70  66  88 S8        30.04S
$$

IAZ055>058-069>071-079>083-090>094-270500-
   SOUTHWEST IOWA

CITY           SKY/WX    TMP DP  RH WIND       PRES   REMARKS
ATLANTIC *     CLEAR     70  66  88 CALM      30.02F
CLARINDA *       N/A     68  68 100 MISG      30.04S
COUNCIL BLFS *   N/A     73  68  83 SE3       30.03F
CRESTON *      CLEAR     70  66  88 E5        30.05S
HARLAN  *      CLEAR     70  66  88 CALM      30.06F
LAMONI         CLEAR     71  66  84 CALM      30.03R
RED OAK *      CLOUDY    72  68  88 CALM      30.02F
SHENANDOAH *   CLEAR     70  70 100 NE5       30.02S
$$

IAZ047>049-059>061-072>074-084-270500-
   CENTRAL IOWA

CITY           SKY/WX    TMP DP  RH WIND       PRES   REMARKS
AMES           CLEAR     65  65 100 SE3       30.02F
ANKENY *         N/A    N/A N/A N/A MISG        N/A
BOONE *          N/A     70  66  88 S5        30.02F
CHARITON *       N/A    N/A N/A N/A MISG        N/A
DES MOINES     CLEAR     78  65  63 S3        30.02S HX  80
GRINNELL*      CLEAR     69  64  84 CALM      30.04R
KNOXVILLE *    CLEAR     73  66  78 CALM      30.02R
MARSHALLTOWN   CLEAR     70  66  87 CALM      30.03R
NEWTON *       CLEAR     72  68  88 CALM      30.03R
PELLA *        CLEAR     70  65  86 CALM      30.03S
PERRY *          N/A     68  67  96 S5        30.03F
$$

IAZ004>006-015-016-023>025-035-036-270500-
   NORTH CENTRAL IOWA

CITY           SKY/WX    TMP DP  RH WIND       PRES   REMARKS
ALGONA *       CLOUDY    73  70  88 S5        30.04R
ESTHERVILLE    CLOUDY    69  68  96 S7        30.02R
FORT DODGE *   CLEAR     73  66  78 S3        30.05R
MASON CITY     CLEAR     69  67  93 CALM      30.05R
FOREST CITY *    N/A     70  70 100 SE3       30.03S
IOWA FALLS *     N/A     70  65  85 S6        30.04F
$$

IAZ007>011-017>019-026>030-037>042-050>054-066-270500-
   NORTHEAST IOWA

CITY           SKY/WX    TMP DP  RH WIND       PRES   REMARKS
CEDAR RAPIDS   CLEAR     70  68  93 CALM      30.01F
CHARLES CITY * CLEAR     70  70 100 S5        30.04R
CLINTON *      CLEAR     70  67  90 CALM      30.03R
DECORAH *      CLOUDY    73  68  83 CALM      30.03R
DUBUQUE        CLEAR     70  66  87 CALM      30.04S
MONTICELLO *   CLEAR     66  66 100 CALM      30.02S
OELWEIN *      CLEAR     70  68  94 SE3       30.03S
WATERLOO       CLEAR     70  65  84 CALM      30.01R
$$

IAZ064-065-067-068-078-270500-
   EAST CENTRAL IOWA

CITY           SKY/WX    TMP DP  RH WIND       PRES   REMARKS
DAVENPORT      CLEAR     69  66  90 NE3       30.03R
IOWA CITY      CLEAR     71  67  87 CALM      30.02F
MT. PLEASANT * CLEAR     73  72  95 CALM      30.01F
MUSCATINE *    CLEAR     72  68  88 CALM      30.01S
QUAD CITIES    CLEAR     72  67  84 CALM      30.01S
$$

IAZ062-063-075>077-085>089-095>099-270500-
   SOUTHEAST IOWA

CITY           SKY/WX    TMP DP  RH WIND       PRES   REMARKS
BURLINGTON     CLEAR     72  69  90 CALM      30.01S
FAIRFIELD *    CLEAR     70  66  88 CALM      30.01F
KEOKUK *       CLEAR     73  70  88 CALM      30.00S
CENTERVILLE *    N/A     66  64  94 CALM      30.03F
OTTUMWA        CLEAR     70  66  87 CALM      30.01F
WASHINGTON *   CLEAR     70  68  94 CALM      30.02F
$$

ABBREVIATIONS USED IN REMARKS
   TC - TEMPERATURES IN CELSIUS
  WCI - WIND CHILL INDEX
   HX - HEAT INDEX
  VSB - VISIBILITY
$$





USA.gov is the U.S. government's official web portal to all federal, state and local government web resources and services.